TimeMST,TemperatureF,Dew PointF,Humidity,Sea Level PressureIn,VisibilityMPH,Wind Direction,Wind SpeedMPH,Gust SpeedMPH,PrecipitationIn,Events,Conditions,WindDirDegrees,DateUTC
12:52 AM,10.9,-2.9,54,30.32,10.0,Calm,Calm,-,N/A,,Clear,0,2012-11-29 07:52:00
1:52 AM,12.9,1.9,62,30.30,9.0,NW,6.9,-,N/A,,Clear,320,2012-11-29 08:52:00
2:52 AM,8.1,-2.0,64,30.32,10.0,NE,6.9,-,N/A,,Clear,50,2012-11-29 09:52:00
3:52 AM,6.1,-4.0,63,30.33,10.0,Calm,Calm,-,N/A,,Clear,0,2012-11-29 10:52:00
4:52 AM,7.0,-2.0,67,30.33,10.0,SW,4.6,-,N/A,,Clear,230,2012-11-29 11:52:00
5:52 AM,6.1,-2.0,69,30.36,10.0,WNW,5.8,-,N/A,,Clear,290,2012-11-29 12:52:00
6:52 AM,3.0,-5.1,69,30.45,10.0,South,3.5,-,N/A,,Clear,170,2012-11-29 13:52:00
7:52 AM,12.0,1.0,61,30.43,10.0,Calm,Calm,-,N/A,,Clear,0,2012-11-29 14:52:00
8:52 AM,24.1,6.1,46,30.41,10.0,SW,3.5,-,N/A,,Clear,220,2012-11-29 15:52:00
9:52 AM,32.0,8.1,37,30.36,10.0,Calm,Calm,-,N/A,,Clear,0,2012-11-29 16:52:00
10:52 AM,-9999,-9999,N/A,30.24,-9999.0,North,-9999.0,-,N/A,,Unknown,0,2012-11-29 17:52:00
11:52 AM,-9999,-9999,N/A,30.21,-9999.0,North,-9999.0,-,N/A,,Unknown,0,2012-11-29 18:52:00
12:52 PM,-9999,-9999,N/A,30.19,-9999.0,North,-9999.0,-,N/A,,Unknown,0,2012-11-29 19:52:00
1:52 PM,-9999,-9999,N/A,30.17,-9999.0,North,-9999.0,-,N/A,,Unknown,0,2012-11-29 20:52:00
2:52 PM,-9999,-9999,N/A,30.16,-9999.0,North,-9999.0,-,N/A,,Unknown,0,2012-11-29 21:52:00
3:53 PM,-9999,-9999,N/A,-9999,-9999.0,North,-9999.0,-,N/A,,Unknown,0,2012-11-29 22:53:00
5:52 PM,34.0,14.0,44,30.33,10.0,Calm,Calm,-,N/A,,Clear,0,2012-11-30 00:52:00
6:52 PM,26.1,10.9,53,30.38,10.0,Calm,Calm,-,N/A,,Clear,0,2012-11-30 01:52:00
7:52 PM,23.0,10.0,58,30.43,10.0,WSW,6.9,-,N/A,,Clear,250,2012-11-30 02:52:00
8:52 PM,27.0,14.0,58,30.38,10.0,SW,6.9,-,N/A,,Clear,230,2012-11-30 03:52:00
9:52 PM,19.9,10.9,68,30.37,10.0,East,6.9,-,N/A,,Clear,80,2012-11-30 04:52:00
10:52 PM,18.0,10.0,71,30.33,10.0,ENE,5.8,-,N/A,,Clear,60,2012-11-30 05:52:00
11:52 PM,18.0,10.0,71,30.31,10.0,East,4.6,-,N/A,,Clear,80,2012-11-30 06:52:00